,HW,L4,LN,O2
,MC,MC,MC,MC
Date,UG/M3,UG/M3,UG/M3,UG/M3
1/1/2006 0:00,15.5,6.5,6.1,2.9
1/1/2006 1:00,4.1,3.9,6.7,2.3
1/1/2006 2:00,5.5,-1.2,6,0.8
1/1/2006 3:00,2.4,-2.5,9,2.3
1/1/2006 4:00,-0.3,-0.8,3.9,0.5
1/1/2006 5:00,1.2,0.1,-0.1,-2.2
1/1/2006 6:00,1.3,0.8,4.8,1.2
1/1/2006 7:00,0,-0.4,4.5,2.6
1/1/2006 8:00,1.4,-0.2,3,0.8
1/1/2006 9:00,2.4,0,7.2,0.8
1/1/2006 10:00,-1.4,-3,3.8,1.8
1/1/2006 11:00,-0.3,1.3,3.7,-0.3
1/1/2006 12:00,-0.8,1.2,1.9,-1.9
1/1/2006 13:00,0.9,0.2,0.7,-4.6
1/1/2006 14:00,-2.3,-0.4,3.4,-1.5
1/1/2006 15:00,0,0.6,0.4,-2.5
1/1/2006 16:00,1.1,3.2,5.4,1
1/1/2006 17:00,2.3,1.9,10.7,5.5
1/1/2006 18:00,3.1,1.4,9.5,5.5
1/1/2006 19:00,6.1,2.3,0.1,5.7
1/1/2006 20:00,4.6,1.2,8.4,6.8
1/1/2006 21:00,1.7,0.4,13.8,7.2
1/1/2006 22:00,4.7,4.4,7.9,5.7
1/1/2006 23:00,4.2,2,10.3,6.1
1/2/2006 0:00,0.3,3.4,14.8,4.4
1/2/2006 1:00,2.6,3.9,6,1.2
1/2/2006 2:00,2.2,3.9,2.1,0.8
1/2/2006 3:00,2,1,5.2,1.8
1/2/2006 4:00,-1.2,-0.1,5.6,0.1
1/2/2006 5:00,-0.7,-2.2,5.2,3.7
1/2/2006 6:00,1.8,-1.3,3.8,0
1/2/2006 7:00,0,0.2,6.1,1.9
1/2/2006 8:00,-0.2,3,5.6,2
1/2/2006 9:00,0.7,5.7,8.4,0.7
1/2/2006 10:00,-0.1,4,4.5,4.2
1/2/2006 11:00,0.9,1.5,0.6,6.9
1/2/2006 12:00,-0.1,5.4,3.7,5.4
1/2/2006 13:00,3,3.8,8.3,3.2
1/2/2006 14:00,5.9,1.9,3.7,1.8
1/2/2006 15:00,5,1.3,2.4,3.3
1/2/2006 16:00,5.4,3.7,2.5,5.6
1/2/2006 17:00,3.3,4,1.2,3.8
1/2/2006 18:00,5,3.2,4.6,3
1/2/2006 19:00,3.9,7.4,1.9,3.1
1/2/2006 20:00,2.2,11,2.7,0.3
1/2/2006 21:00,1.5,9.8,-0.8,-2
1/2/2006 22:00,0.8,5.4,0.3,-0.7
1/2/2006 23:00,-1.9,3,5.8,2.3
1/3/2006 0:00,-3,1.7,3.7,2.5
1/3/2006 1:00,-1,0.9,3.5,-1.6
1/3/2006 2:00,0.8,1.8,3,-0.5
1/3/2006 3:00,-0.5,0.9,0.8,-1.3
1/3/2006 4:00,-0.9,1.5,0.5,-1.6
1/3/2006 5:00,0.1,1.8,1.9,-0.2
1/3/2006 6:00,0.6,2.3,1.4,-0.1
1/3/2006 7:00,1.4,4,2.7,0.6
1/3/2006 8:00,0.8,1.9,2.8,0.9
1/3/2006 9:00,3.3,0.4,3.8,2.2
1/3/2006 10:00,4.5,2.6,3.9,2.9
1/3/2006 11:00,2.3,8.2,3.6,-0.8
1/3/2006 12:00,-0.1,4.8,2.3,0.3
1/3/2006 13:00,1,2.6,4.7,0.4
1/3/2006 14:00,-0.5,0.9,2.2,0.5
1/3/2006 15:00,1.2,-1,2.6,1.9
1/3/2006 16:00,3.2,1.6,1.4,0.2
1/3/2006 17:00,6.1,3.2,3.1,1.6
1/3/2006 18:00,4.2,3,11.7,5.2
1/3/2006 19:00,2.2,5.1,6.3,10.4
1/3/2006 20:00,5.5,5.4,4.8,13.7
1/3/2006 21:00,5.7,9.3,7.7,13.4
1/3/2006 22:00,6.6,9.2,11.8,11.5
1/3/2006 23:00,10.7,9.2,10.8,11.6
1/4/2006 0:00,9.6,7.8,9.3,6.6
1/4/2006 1:00,2.7,6,6.8,3.1
1/4/2006 2:00,2.8,4.9,5.8,3.9
1/4/2006 3:00,6.5,3.5,9.9,5.7
1/4/2006 4:00,5.5,1.2,8,7.8
1/4/2006 5:00,3.1,4.4,5,7.4
1/4/2006 6:00,7.2,8.2,12,5.4
1/4/2006 7:00,10.1,9.3,11,3.9
1/4/2006 8:00,12.4,8.6,14,6.9
1/4/2006 9:00,15.4,7.8,14.1,9.1
1/4/2006 10:00,18.4,9.2,10.5,8.2
1/4/2006 11:00,11.9,5.3,-5.8,4.8
1/4/2006 12:00,9.1,3.5,-0.8,3.1
1/4/2006 13:00,3.2,9.1,0.7,2.8
1/4/2006 14:00,1.4,2.3,1.9,2.6
1/4/2006 15:00,1.2,-1,1.2,2.8
1/4/2006 16:00,0.8,2.4,2.3,1.3
1/4/2006 17:00,2.6,6.7,2.9,3
1/4/2006 18:00,6.4,10.5,1.1,4.4
1/4/2006 19:00,14,11.1,3.7,5.1
1/4/2006 20:00,12.4,13.7,2.5,14.5
1/4/2006 21:00,7.3,11.2,11.3,15
1/4/2006 22:00,4.5,11.4,12.9,10.5
1/4/2006 23:00,3.4,11,8.7,7.2
1/5/2006 0:00,7.1,7.6,6.4,7.8
1/5/2006 1:00,5.3,2.8,5.9,4.7
1/5/2006 2:00,3.2,4.3,7.6,4.1
1/5/2006 3:00,5.1,5,7.8,3.6
1/5/2006 4:00,4.3,3.6,9.9,5.5
1/5/2006 5:00,1.8,8.2,7.2,3.1
1/5/2006 6:00,3.4,3.5,8.3,3.8
1/5/2006 7:00,7.9,4.6,10.2,7
1/5/2006 8:00,14.2,5.1,13.1,10.2
1/5/2006 9:00,16.7,1.6,8.6,11.6
1/5/2006 10:00,13.7,3.4,6.3,9.2
1/5/2006 11:00,15.9,1.7,9.5,3.9
1/5/2006 12:00,21,2.2,10.5,2.3
1/5/2006 13:00,12.6,5.5,8.9,2.6
1/5/2006 14:00,7.8,2.9,10.7,5.1
1/5/2006 15:00,11.9,5.4,11,2
1/5/2006 16:00,11.1,5.9,9.4,1.9
1/5/2006 17:00,17.4,9.1,15.9,3.4
1/5/2006 18:00,28,9,20.7,7.6
1/5/2006 19:00,31,9.7,33.8,16.1
1/5/2006 20:00,23.6,10.2,13.1,19.6
1/5/2006 21:00,30.1,5.5,0.7,19.7
1/5/2006 22:00,25.8,9.7,14.1,21.3
1/5/2006 23:00,23.3,11.3,12.3,16.9
1/6/2006 0:00,17.6,7,16.1,10.8
1/6/2006 1:00,15.3,2.1,11.9,8.3
1/6/2006 2:00,11.5,8.1,9.8,9.2
1/6/2006 3:00,7.6,8.4,8.9,8.8
1/6/2006 4:00,9.6,11.3,9.2,7.3
1/6/2006 5:00,9.1,8.7,3.9,7.4
1/6/2006 6:00,10.3,8.3,5.7,8.3
1/6/2006 7:00,14.8,12.2,12.4,10.6
1/6/2006 8:00,19.1,13.2,19.3,14.6
1/6/2006 9:00,26.6,15.6,25.2,17.5
1/6/2006 10:00,32.5,14.5,14.1,14
1/6/2006 11:00,30.3,15.5,10.8,11.7
1/6/2006 12:00,34,17.5,13.8,5.9
1/6/2006 13:00,23.1,18.1,16.5,7.1
1/6/2006 14:00,21,18.7,16.4,10.1
1/6/2006 15:00,25.9,12.8,17.1,7.4
1/6/2006 16:00,30.4,11,21.8,10.4
1/6/2006 17:00,25.6,17.4,22,8.4
1/6/2006 18:00,24.4,19.3,24.9,13
1/6/2006 19:00,28.9,19.6,26.7,20.6
1/6/2006 20:00,32.7,22.1,28.5,20.8
1/6/2006 21:00,39.4,18.2,16.4,17
1/6/2006 22:00,34,20.7,16.3,24.2
1/6/2006 23:00,26.8,20.2,17.4,29.5
1/7/2006 0:00,29.4,21.6,22.7,24.3
1/7/2006 1:00,31.9,19.5,11.6,20.4
1/7/2006 2:00,34.5,21.1,8.9,15
1/7/2006 3:00,33.2,16.8,10.5,13.8
1/7/2006 4:00,26.7,15.8,7.5,14.3
1/7/2006 5:00,25.3,15.1,6.7,13.8
1/7/2006 6:00,18.7,14.9,7.5,13.8
1/7/2006 7:00,12.3,16.4,7.1,15
1/7/2006 8:00,24.8,18.5,11.1,16.7
1/7/2006 9:00,28.1,20.8,15.2,23.3
1/7/2006 10:00,31.1,22.8,12.5,28.9
1/7/2006 11:00,31.4,19.2,4.5,39.1
1/7/2006 12:00,29,19.6,2.1,23
1/7/2006 13:00,27.2,14.3,1.9,18.5
1/7/2006 14:00,22.8,12.4,3.1,18
1/7/2006 15:00,25.4,8.9,4.1,9.7
1/7/2006 16:00,12.6,10.5,3.7,5.8
1/7/2006 17:00,18.3,8.4,9.1,9.8
1/7/2006 18:00,20.2,9,14.8,9.5
1/7/2006 19:00,23.9,10.5,19.6,11.5
1/7/2006 20:00,31.2,14.2,19.1,12
1/7/2006 21:00,36.6,8.4,17.2,12
1/7/2006 22:00,34.1,10.9,21.2,12.8
1/7/2006 23:00,33.1,16.8,25,15.2
1/8/2006 0:00,33.3,14.4,20.4,7.9
1/8/2006 1:00,30.6,4.3,15.4,4.6
1/8/2006 2:00,18.7,1,15.4,1.4
1/8/2006 3:00,4.2,2.2,6.6,0.9
1/8/2006 4:00,2.8,5.8,3.7,-2.9
1/8/2006 5:00,-0.3,0.5,2.8,-1.2
1/8/2006 6:00,0.5,-0.2,3.2,2
1/8/2006 7:00,-0.3,2.3,-0.3,0.5
1/8/2006 8:00,-0.4,0.9,2.2,-0.8
1/8/2006 9:00,0.6,2.1,3.3,0.4
1/8/2006 10:00,3.6,3.6,1.1,0.6
1/8/2006 11:00,0.2,2.4,-2.5,0.6
1/8/2006 12:00,-0.2,0.3,-1.2,-0.3
1/8/2006 13:00,0.8,0.6,0.7,-1.6
1/8/2006 14:00,0.8,2.1,0.1,-1.4
1/8/2006 15:00,1,2.2,2.2,0.5
1/8/2006 16:00,1.1,1,2.6,-0.1
1/8/2006 17:00,1,2.9,9.1,1.1
1/8/2006 18:00,2.7,2.1,10.2,4.6
1/8/2006 19:00,7.3,5.3,33.4,13.4
1/8/2006 20:00,12.6,6.6,9.5,9
1/8/2006 21:00,12.3,5.1,9.9,4.9
1/8/2006 22:00,18.8,5.5,15.3,6.7
1/8/2006 23:00,12.1,-0.3,14,9.8
1/9/2006 0:00,1,0.4,12.1,6.1
1/9/2006 1:00,0.1,3.1,6.1,4.8
1/9/2006 2:00,0.3,6.5,3.1,6.3
1/9/2006 3:00,-1.9,2.4,4.7,6.5
1/9/2006 4:00,-0.8,4.2,9.4,5
1/9/2006 5:00,1.2,2.7,3.1,4.7
1/9/2006 6:00,2.4,3.4,1.1,4.3
1/9/2006 7:00,5.7,3.9,4.6,5.2
1/9/2006 8:00,11.3,8.5,12.2,8.7
1/9/2006 9:00,14.8,7,13.7,11.5
1/9/2006 10:00,17.7,7.4,8.7,8
1/9/2006 11:00,8.9,15.6,8.1,4.5
1/9/2006 12:00,9.1,19.1,6.2,7.7
1/9/2006 13:00,12.3,23.1,4.9,6.4
1/9/2006 14:00,14.2,11.3,12.6,5.7
1/9/2006 15:00,10,12.2,9.4,5.3
1/9/2006 16:00,6.7,9.4,6.4,6.5
1/9/2006 17:00,7.8,4.4,5.9,8.5
1/9/2006 18:00,16.1,7.3,4.8,8.1
1/9/2006 19:00,16.4,13.9,12.7,13.2
1/9/2006 20:00,12.8,11.8,10.4,17.2
1/9/2006 21:00,13.9,10.4,18.8,17.1
1/9/2006 22:00,18,5.1,15.3,16
1/9/2006 23:00,18.1,6.7,16.8,20
1/10/2006 0:00,11.6,7.9,16.1,16.7
1/10/2006 1:00,10.4,3.3,7.3,15.5
1/10/2006 2:00,11.3,7,10.4,12.6
1/10/2006 3:00,9.1,2.9,10.2,13.7
1/10/2006 4:00,7.7,5.5,4,13.3
1/10/2006 5:00,6.1,1.7,9.9,13.9
1/10/2006 6:00,6.6,4.8,10.4,11.3
1/10/2006 7:00,9.3,13.2,12.6,13.4
1/10/2006 8:00,17.9,17,-0.9,15.1
1/10/2006 9:00,24,11.9,12,17.6
1/10/2006 10:00,18.7,8.9,10,21.7
1/10/2006 11:00,23.7,12.9,13,12.7
1/10/2006 12:00,25.9,14.9,7.5,4.5
1/10/2006 13:00,21.3,13.2,11,7
1/10/2006 14:00,14.2,11.4,13.9,8.5
1/10/2006 15:00,19.4,11.2,15,10.1
1/10/2006 16:00,21.3,12.1,12.9,10.5
1/10/2006 17:00,25,14.3,15.1,12
1/10/2006 18:00,24.1,17.4,23,18.8
1/10/2006 19:00,18.4,18.2,21.7,22.5
1/10/2006 20:00,28.8,21.1,17.8,28.4
1/10/2006 21:00,32.7,24.8,19.4,31
1/10/2006 22:00,36.6,23.1,34.4,32.1
1/10/2006 23:00,38.3,19.8,2.4,34
1/11/2006 0:00,36.7,17.4,19.6,33.4
1/11/2006 1:00,20.6,20.7,2.7,25.3
1/11/2006 2:00,14.3,9.8,2.1,18
1/11/2006 3:00,7.2,5.4,11.3,15.9
1/11/2006 4:00,13.6,2.1,8.9,9.4
1/11/2006 5:00,18,1.8,11.4,7.4
1/11/2006 6:00,17,1.9,10.7,2.5
1/11/2006 7:00,13.9,3.8,4.1,6.7
1/11/2006 8:00,13.3,1.9,4.7,10
1/11/2006 9:00,12.6,3.2,7.2,9.6
1/11/2006 10:00,16.5,1.6,12.7,3.4
1/11/2006 11:00,18.1,3,13.2,5.5
1/11/2006 12:00,15.8,5,10.5,2.9
1/11/2006 13:00,13.7,4.2,3.4,3.9
1/11/2006 14:00,9.8,5.7,0.8,6.9
1/11/2006 15:00,4.2,6,3.7,7.3
1/11/2006 16:00,15.3,5.3,3.5,4.3
1/11/2006 17:00,8.8,3.5,6.3,3.2
1/11/2006 18:00,6.6,4.1,19.2,4
1/11/2006 19:00,3.8,1.9,0.5,5.1
1/11/2006 20:00,3.2,0.5,1,-0.3
1/11/2006 21:00,2.9,1.9,0.7,-1.2
1/11/2006 22:00,3.2,-0.7,-2,1.2
1/11/2006 23:00,3.2,3.8,-0.4,6.4
1/12/2006 0:00,7,4.2,1.6,5.3
1/12/2006 1:00,6.8,5.4,0.2,3.1
1/12/2006 2:00,5.6,6.7,-9.8,2.9
1/12/2006 3:00,5.8,4.6,2.5,-0.4
1/12/2006 4:00,5.6,4.6,7.4,-1.3
1/12/2006 5:00,3.9,0.7,4.8,1.2
1/12/2006 6:00,3.7,2.1,6.9,2.8
1/12/2006 7:00,3.3,2.4,6,3.2
1/12/2006 8:00,4.4,5.5,3.2,4.2
1/12/2006 9:00,7.5,6.9,-2.2,5.9
1/12/2006 10:00,3.3,7.5,,1.3
1/12/2006 11:00,1.8,0.4,-2.2,-0.7
1/12/2006 12:00,5.1,3.7,-0.2,0.2
1/12/2006 13:00,4.7,3.8,1.4,-0.3
1/12/2006 14:00,4.6,1.9,6.1,1.5
1/12/2006 15:00,8.1,0.7,3,-0.3
1/12/2006 16:00,5.7,2.2,-0.7,-1.1
1/12/2006 17:00,2.2,6.5,2.5,0.8
1/12/2006 18:00,8.2,9.4,7.1,3
1/12/2006 19:00,7,10.7,17.4,5.4
1/12/2006 20:00,5.4,5.8,9.6,7.2
1/12/2006 21:00,7.5,9.4,1.9,7.6
1/12/2006 22:00,12.3,8.6,6.7,9.2
1/12/2006 23:00,15.4,8.8,21.2,8.5
1/13/2006 0:00,10,6.9,15.5,8.6
1/13/2006 1:00,6.7,7,-4.6,7.9
1/13/2006 2:00,7.7,3.8,19.5,7.2
1/13/2006 3:00,7.4,4.2,13.6,5.2
1/13/2006 4:00,5.3,5.4,14.6,5.1
1/13/2006 5:00,5,9.4,14.7,6.3
1/13/2006 6:00,5.4,7.3,15.1,10.2
1/13/2006 7:00,9.2,8.9,10.1,10.5
1/13/2006 8:00,13.1,14.1,11.1,12.4
1/13/2006 9:00,14.9,14.1,15.3,17.9
1/13/2006 10:00,14.1,12.2,5,16.5
1/13/2006 11:00,16,18.1,5,6.6
1/13/2006 12:00,18,13.6,8.5,7.9
1/13/2006 13:00,19.8,8.4,7.3,10.4
1/13/2006 14:00,18.6,11.8,9.8,7.6
1/13/2006 15:00,20.6,14.2,11.1,5.5
1/13/2006 16:00,20.9,16.2,14.6,6.2
1/13/2006 17:00,22.5,19,5.8,7.4
1/13/2006 18:00,30.6,24,20.4,12
1/13/2006 19:00,38.9,23.2,25.2,15.6
1/13/2006 20:00,43.7,22.4,17.1,14.8
1/13/2006 21:00,40.9,21.2,18.7,15.1
1/13/2006 22:00,39.4,24.4,16,17.4
1/13/2006 23:00,28.7,27.7,9.7,18
1/14/2006 0:00,18.7,27.9,10.9,14.1
1/14/2006 1:00,15.3,30.4,6.3,11.8
1/14/2006 2:00,12.2,25,3.7,8.4
1/14/2006 3:00,6.7,26.4,4.6,16.2
1/14/2006 4:00,6.6,24.1,4.1,10.2
1/14/2006 5:00,6.1,24.7,4.1,2.1
1/14/2006 6:00,3.2,23.5,7.1,1.5
1/14/2006 7:00,5.2,23.5,6.2,5.9
1/14/2006 8:00,5.1,25.3,5.4,9
1/14/2006 9:00,5.2,28.8,7.1,9.4
1/14/2006 10:00,8.2,31.2,6.5,4.2
1/14/2006 11:00,10.1,36,7.7,9.7
1/14/2006 12:00,3.8,31.9,6.7,6.9
1/14/2006 13:00,4.9,33.3,7.3,6.4
1/14/2006 14:00,5.1,31.8,7.4,8.8
1/14/2006 15:00,5.1,35.2,4,11
1/14/2006 16:00,4.9,42.6,3.3,13.6
1/14/2006 17:00,4.5,43.7,0.5,12.8
1/14/2006 18:00,3.7,42.6,4.3,9.2
1/14/2006 19:00,5,36.8,5.8,2.9
1/14/2006 20:00,5.6,38.1,10.6,4
1/14/2006 21:00,6.1,9.4,4.9,0.8
1/14/2006 22:00,7.6,3.2,6.5,2
1/14/2006 23:00,5.9,5.2,1.9,0.7
1/15/2006 0:00,1.2,3.7,1.4,1.6
1/15/2006 1:00,-0.7,1.5,3.2,2.8
1/15/2006 2:00,0.2,0.2,0.1,1.1
1/15/2006 3:00,-0.1,1.9,0.8,-0.4
1/15/2006 4:00,2,0.5,1.9,0.6
1/15/2006 5:00,3.8,1.8,0.9,3
1/15/2006 6:00,6.2,5.5,4.1,3.3
1/15/2006 7:00,3.8,2.3,4.2,0.7
1/15/2006 8:00,4.5,0.4,5.8,4.1
1/15/2006 9:00,5.5,3.2,6.5,4.1
1/15/2006 10:00,7.5,0.2,3,3.3
1/15/2006 11:00,2.2,3.7,3.5,1.3
1/15/2006 12:00,-0.3,1.1,1.2,0.6
1/15/2006 13:00,1.8,0.1,0.2,-2.1
1/15/2006 14:00,2.2,1,-0.7,-1
1/15/2006 15:00,2.5,1.8,-1,-0.4
1/15/2006 16:00,2.6,1.2,-1.4,-0.4
1/15/2006 17:00,5,2.4,-1,-1.4
1/15/2006 18:00,2.9,4.4,1.9,-0.5
1/15/2006 19:00,4.6,5.7,1.1,-0.9
1/15/2006 20:00,8.4,6,3.3,-1.4
1/15/2006 21:00,4.1,5.5,0.6,-1
1/15/2006 22:00,0.5,3.7,-1.5,1.4
1/15/2006 23:00,3.7,6,-10.7,2.2
1/16/2006 0:00,2.5,3.6,-8,0.5
1/16/2006 1:00,3.7,5.5,3.3,1.1
1/16/2006 2:00,3.6,6.8,4.1,3.4
1/16/2006 3:00,3.6,6.4,9.3,4.5
1/16/2006 4:00,4.7,5.6,10,5.6
1/16/2006 5:00,4.7,3.3,9.9,5.6
1/16/2006 6:00,6.4,5.3,6.7,8.5
1/16/2006 7:00,7.7,6.7,6.6,5.8
1/16/2006 8:00,6.8,8.3,12,5.3
1/16/2006 9:00,4.8,17.8,-3.3,11.2
1/16/2006 10:00,8.8,17.9,9.8,13.9
1/16/2006 11:00,6,10.9,7,10.1
1/16/2006 12:00,14.1,6.7,5.1,5.4
1/16/2006 13:00,8.7,6.8,4.3,2.9
1/16/2006 14:00,7.5,9.7,4.7,1.3
1/16/2006 15:00,4.9,6.8,5,0.9
1/16/2006 16:00,4.1,2.1,6.4,-0.6
1/16/2006 17:00,4.8,6.2,9.1,2.2
1/16/2006 18:00,9.3,5.5,14.1,5.6
1/16/2006 19:00,10,5.1,13.4,4.5
1/16/2006 20:00,10.8,11.7,20,11.3
1/16/2006 21:00,9.4,14.5,14.2,17.4
1/16/2006 22:00,9.6,12.2,16.5,12.3
1/16/2006 23:00,8.5,11.8,14.6,9
1/17/2006 0:00,11.1,7.5,19.6,8.6
1/17/2006 1:00,9.1,11,15.9,7.5
1/17/2006 2:00,14.6,9,6,9.4
1/17/2006 3:00,10.9,8.6,0.4,7.7
1/17/2006 4:00,12.4,8.9,6.1,6.3
1/17/2006 5:00,10.2,8.5,8,5.1
1/17/2006 6:00,10.7,7.9,7.5,6.4
1/17/2006 7:00,9.3,11.9,0.7,10.8
1/17/2006 8:00,10,30,6.9,9.2
1/17/2006 9:00,10,14.9,12.8,10.8
1/17/2006 10:00,13.7,16.3,11,9.8
1/17/2006 11:00,15.7,13.7,5.9,4.3
1/17/2006 12:00,12.2,13,3.8,7
1/17/2006 13:00,14.9,10.8,1.3,9.2
1/17/2006 14:00,10,11.8,0.8,10.4
1/17/2006 15:00,13.2,8.2,0.6,11.1
1/17/2006 16:00,10.9,5.5,3.1,9.3
1/17/2006 17:00,14.2,7.3,13,8.5
1/17/2006 18:00,14.6,11.3,11.1,4.7
1/17/2006 19:00,10,12.5,9.3,5.6
1/17/2006 20:00,7.6,15,6.5,15.4
1/17/2006 21:00,15.7,18.2,9.4,9.5
1/17/2006 22:00,13.5,20.2,12.9,1.2
1/17/2006 23:00,11.3,22.4,14.4,7.4
1/18/2006 0:00,6.3,21.5,11.3,12.1
1/18/2006 1:00,8,19.7,2.4,12.8
1/18/2006 2:00,7.7,21.7,3.1,7.8
1/18/2006 3:00,3.6,26.6,5.7,13.4
1/18/2006 4:00,2.4,27.8,1.7,14.9
1/18/2006 5:00,6.7,16.2,0.9,18.4
1/18/2006 6:00,11.9,30.7,2.1,21.7
1/18/2006 7:00,16.4,30.1,1.7,23.3
1/18/2006 8:00,10.7,25.3,3.9,26.7
1/18/2006 9:00,6.2,19.6,4.3,29.7
1/18/2006 10:00,3.2,22.5,1.4,20.5
1/18/2006 11:00,3.7,11,0.7,5.5
1/18/2006 12:00,7.5,6.3,3.6,6.1
1/18/2006 13:00,10.1,4.1,1.2,4.3
1/18/2006 14:00,8.5,4.3,2.1,10.1
1/18/2006 15:00,3.1,1.4,0.6,7.6
1/18/2006 16:00,5.1,-0.7,0.1,6.5
1/18/2006 17:00,6.8,1.7,5.6,7.2
1/18/2006 18:00,11.5,2.1,14.4,9.9
1/18/2006 19:00,15.1,6.4,13.4,13
1/18/2006 20:00,14.7,10.1,15.7,16.2
1/18/2006 21:00,10.1,10.6,14,14.7
1/18/2006 22:00,11.2,8.5,15.6,15.1
1/18/2006 23:00,11.9,10.8,11.7,15.9
1/19/2006 0:00,10.9,15.8,5.9,17.1
1/19/2006 1:00,11,15,8.7,13.8
1/19/2006 2:00,11.4,10.8,6.4,6.9
1/19/2006 3:00,14.9,11,0.4,6.7
1/19/2006 4:00,15.2,18.9,0,12.9
1/19/2006 5:00,17.5,15.6,-2.8,13.7
1/19/2006 6:00,16.2,15.7,7.4,10.3
1/19/2006 7:00,14.7,14.2,16.1,6
1/19/2006 8:00,12.9,8.2,15.9,10
1/19/2006 9:00,9.5,5.5,18.3,10.8
1/19/2006 10:00,9.2,7.8,9.5,9.1
1/19/2006 11:00,13,11.5,6,10.7
1/19/2006 12:00,11.3,13.7,22.1,8.7
1/19/2006 13:00,13,7.9,21.6,8.7
1/19/2006 14:00,11.3,8.8,12.2,6.9
1/19/2006 15:00,5.2,7.8,12,5.5
1/19/2006 16:00,3.5,7.8,10.9,2.5
1/19/2006 17:00,5.4,-0.4,3.3,3
1/19/2006 18:00,4.7,15.1,1.6,1.7
1/19/2006 19:00,5.8,13.8,13.9,5.3
1/19/2006 20:00,11.5,13,10.3,12
1/19/2006 21:00,14.8,10.9,15.3,9
1/19/2006 22:00,14.4,8.3,10.2,6.7
1/19/2006 23:00,13.9,3.3,-3.4,6.4
1/20/2006 0:00,12.2,1.8,8.7,5.7
1/20/2006 1:00,9.6,5.2,17.3,6.6
1/20/2006 2:00,13.3,9.4,20.6,7.3
1/20/2006 3:00,15.5,9.2,8.5,6
1/20/2006 4:00,13.2,12,9.1,10
1/20/2006 5:00,12.9,16,7.3,10.9
1/20/2006 6:00,13.5,15.8,1.2,9.4
1/20/2006 7:00,17.6,16.4,5.3,13
1/20/2006 8:00,16.8,19.7,14.5,14.7
1/20/2006 9:00,20.4,18.8,19.1,16.9
1/20/2006 10:00,18.4,12.1,12.4,17.1
1/20/2006 11:00,17,7.5,10.4,13.7
1/20/2006 12:00,14.5,3.9,12.5,15.3
1/20/2006 13:00,13.4,7.4,8.8,11.1
1/20/2006 14:00,10.8,5.3,11,6.8
1/20/2006 15:00,7.1,4.8,12.6,5.2
1/20/2006 16:00,5.2,6.8,10.1,3.8
1/20/2006 17:00,6.6,7.7,8.2,4.1
1/20/2006 18:00,9,6.5,25,3.5
1/20/2006 19:00,10.8,7.1,13.3,4.8
1/20/2006 20:00,12.9,2.9,13,6
1/20/2006 21:00,16.8,3.4,19.2,3.3
1/20/2006 22:00,17.4,4.8,28.3,5.3
1/20/2006 23:00,15.1,-1.7,22.6,6.4
1/21/2006 0:00,12.4,-0.3,30.1,5.9
1/21/2006 1:00,8.4,1.2,16.5,4.1
1/21/2006 2:00,6,4.3,9.2,4.4
1/21/2006 3:00,4.4,5,11.2,5.7
1/21/2006 4:00,7.2,3.3,9.4,5.6
1/21/2006 5:00,4.9,0.9,13.2,0.5
1/21/2006 6:00,4.2,2.2,8.4,1.1
1/21/2006 7:00,2.2,3.2,10.4,2.4
1/21/2006 8:00,4.1,4.6,13.5,3.4
1/21/2006 9:00,10,5.9,21,5.2
1/21/2006 10:00,9.3,6.8,21.6,5.9
1/21/2006 11:00,12.6,8,20.6,5.9
1/21/2006 12:00,10.6,7.6,18.6,6.7
1/21/2006 13:00,11.4,5.1,16,4.8
1/21/2006 14:00,5.7,5.3,13.5,5
1/21/2006 15:00,1.5,7.9,8.2,6.4
1/21/2006 16:00,1.3,8,6,5.7
1/21/2006 17:00,3.5,4.5,1.4,6.5
1/21/2006 18:00,10.3,2.5,15.4,7.5
1/21/2006 19:00,12.8,5.7,21.9,13.8
1/21/2006 20:00,12,6.3,21.2,16.4
1/21/2006 21:00,9.6,5.9,21.8,17.4
1/21/2006 22:00,10.6,3.9,43.3,18.9
1/21/2006 23:00,14.8,1.9,33.3,18.3
1/22/2006 0:00,5,7.3,26.1,16.4
1/22/2006 1:00,1.7,6.4,16.3,8.2
1/22/2006 2:00,2.7,8.7,15.3,8.6
1/22/2006 3:00,2.3,6.4,17.6,5.9
1/22/2006 4:00,2.3,4.5,23.7,4.7
1/22/2006 5:00,4.4,2.4,14.6,7.7
1/22/2006 6:00,2.7,2.1,18.2,9.8
1/22/2006 7:00,0.2,4.7,21.8,8.4
1/22/2006 8:00,0.1,5.4,21.6,9.8
1/22/2006 9:00,1.3,5.3,12.6,12.3
1/22/2006 10:00,1.1,7,12.6,8
1/22/2006 11:00,2.8,5.2,15.5,3.9
1/22/2006 12:00,9.3,2.1,15,4.4
1/22/2006 13:00,10.5,6.9,16,3.7
1/22/2006 14:00,10.4,4.7,14.9,4.7
1/22/2006 15:00,8.1,4.7,14.1,6.6
1/22/2006 16:00,4.4,7.8,15.9,3.8
1/22/2006 17:00,2.9,5.9,16.7,3.8
1/22/2006 18:00,4.8,8.4,24.6,5.2
1/22/2006 19:00,7.5,11,35.2,7.5
1/22/2006 20:00,11.2,13.4,25.2,8.2
1/22/2006 21:00,10.9,16.1,35.4,13.3
1/22/2006 22:00,14,16.1,34.7,15.4
1/22/2006 23:00,12,12,25,15.5
1/23/2006 0:00,10,12.8,26.9,12
1/23/2006 1:00,7.1,8.3,29.6,13.2
1/23/2006 2:00,7.2,11.3,27,12.7
1/23/2006 3:00,8.5,17.4,25.8,10.9
1/23/2006 4:00,8.5,17.7,21.9,10.6
1/23/2006 5:00,10.6,20.2,19.8,11.6
1/23/2006 6:00,12.1,18.8,16.7,13.9
1/23/2006 7:00,15.2,17.9,22.1,14.8
1/23/2006 8:00,22.9,17.1,20.7,17.3
1/23/2006 9:00,23.7,15.8,21.4,19.5
1/23/2006 10:00,28,17.2,34.2,23.9
1/23/2006 11:00,30.3,24.1,14,17.6
1/23/2006 12:00,27.1,32,1.7,15.4
1/23/2006 13:00,23.4,23.8,20.9,11.6
1/23/2006 14:00,24.8,17.1,25.3,12.8
1/23/2006 15:00,23.5,17.4,21.8,11.8
1/23/2006 16:00,18.2,20,23.1,13.6
1/23/2006 17:00,12.3,18.4,31,11.9
1/23/2006 18:00,14.6,20.1,27.9,11.6
1/23/2006 19:00,13.1,23.9,34.5,13.7
1/23/2006 20:00,18.1,30.7,42.5,15.1
1/23/2006 21:00,21.5,29.8,38.9,19.9
1/23/2006 22:00,22.8,25.6,36.1,19.3
1/23/2006 23:00,22.1,20.9,43.1,21.1
1/24/2006 0:00,20.8,12.3,38.5,20.9
1/24/2006 1:00,23.4,20.5,40.1,18.4
1/24/2006 2:00,20.2,16.1,34.6,15
1/24/2006 3:00,23.9,16.3,32.8,11.6
1/24/2006 4:00,26,19.5,31.9,13.6
1/24/2006 5:00,30.9,20.1,30.5,11.3
1/24/2006 6:00,33.4,27.2,36.1,12.7
1/24/2006 7:00,36.1,25,36.9,13.1
1/24/2006 8:00,39.1,23.4,35.9,14.8
1/24/2006 9:00,43.4,29,38.6,15.8
1/24/2006 10:00,46.4,31,40.7,11.2
1/24/2006 11:00,41.7,29.9,33.4,8.4
1/24/2006 12:00,44.7,16.2,26.6,16.7
1/24/2006 13:00,44.9,17,33.2,21.9
1/24/2006 14:00,43.8,22.9,34.7,23.9
1/24/2006 15:00,44.4,23.1,33,24.5
1/24/2006 16:00,42.5,24.9,28.7,26.8
1/24/2006 17:00,39.3,28,31.7,24.1
1/24/2006 18:00,35,24.9,32.8,22.3
1/24/2006 19:00,36.1,28.3,47,22.8
1/24/2006 20:00,39.6,33.3,46.2,25.6
1/24/2006 21:00,43.1,32,41,32.1
1/24/2006 22:00,46.9,38.5,44.2,34.7
1/24/2006 23:00,50,45.1,46.5,32.4
1/25/2006 0:00,45.5,39.8,45.4,36.2
1/25/2006 1:00,48.9,40.9,51.7,42.6
1/25/2006 2:00,47.3,37.8,42.9,31.3
1/25/2006 3:00,45.1,34.3,37.5,27.2
1/25/2006 4:00,42.7,31.9,44.8,32.1
1/25/2006 5:00,39.1,29.9,45.1,30.5
1/25/2006 6:00,40.6,43.2,42.5,35.8
1/25/2006 7:00,47.9,33.6,43.3,42.5
1/25/2006 8:00,49,37.2,57.3,46.5
1/25/2006 9:00,49.6,36.2,71.9,49.6
1/25/2006 10:00,58.2,44,58.2,45.9
1/25/2006 11:00,76.6,45.3,71.8,32
1/25/2006 12:00,82.6,44.6,65.2,26.2
1/25/2006 13:00,77.8,40.9,53.7,26.4
1/25/2006 14:00,61,39.9,50.4,25.7
1/25/2006 15:00,56,45.6,44.9,28.7
1/25/2006 16:00,46.8,54.4,51.8,27.6
1/25/2006 17:00,45.1,47.3,56.3,29.6
1/25/2006 18:00,44.2,39.3,51.9,35.1
1/25/2006 19:00,46.5,43.7,53.4,38.2
1/25/2006 20:00,46.4,44,59.4,39.6
1/25/2006 21:00,47.9,47.4,51.8,42
1/25/2006 22:00,49.5,45.4,40.5,43.4
1/25/2006 23:00,50.4,45.8,29,43.5
1/26/2006 0:00,47.9,45.1,28,44
1/26/2006 1:00,41.9,46.4,25.6,43.8
1/26/2006 2:00,45.3,49.7,21.3,42.3
1/26/2006 3:00,46.9,56.8,24.2,43.3
1/26/2006 4:00,46.9,56.1,19.6,47.9
1/26/2006 5:00,49.7,49.5,15.7,49.8
1/26/2006 6:00,50.2,53,17.7,51.8
1/26/2006 7:00,45.4,56.1,19.9,52.9
1/26/2006 8:00,43.2,62.9,16.2,57.6
1/26/2006 9:00,55.4,65.5,16,55.7
1/26/2006 10:00,59.7,70.9,10.8,52.2
1/26/2006 11:00,66.5,61.9,6.4,33.6
1/26/2006 12:00,43.7,56.1,7.9,30.3
1/26/2006 13:00,26.9,56.8,8.2,39.8
1/26/2006 14:00,16.4,54.9,8.2,29.4
1/26/2006 15:00,40.5,48.8,7.4,21.1
1/26/2006 16:00,43.5,44.3,5.8,38.9
1/26/2006 17:00,47.7,51.4,6.6,42
1/26/2006 18:00,45.3,60.4,-1.2,43.2
1/26/2006 19:00,45.1,62,10.9,47.3
1/26/2006 20:00,45.7,63.9,14.1,49.3
1/26/2006 21:00,50.5,63.5,9.3,43
1/26/2006 22:00,53.3,60.5,12.1,46.7
1/26/2006 23:00,41.9,63.2,17.7,48.7
1/27/2006 0:00,22.4,58.7,13.5,46.2
1/27/2006 1:00,13.8,56.4,9.5,42.4
1/27/2006 2:00,10.4,59.1,14.5,39
1/27/2006 3:00,8.1,54.1,10,34.5
1/27/2006 4:00,14.4,53.5,9,38.6
1/27/2006 5:00,18.2,33.9,10.1,34.8
1/27/2006 6:00,18.9,15.8,7.9,16.6
1/27/2006 7:00,20.5,9.8,7.1,9.1
1/27/2006 8:00,17.7,7.2,10.2,6.7
1/27/2006 9:00,20,7,10.8,7.9
1/27/2006 10:00,17.3,4.9,11.4,10.9
1/27/2006 11:00,15.4,10,11.8,11.4
1/27/2006 12:00,13.6,4.4,12.3,9.4
1/27/2006 13:00,6.4,3.2,16.6,7.2
1/27/2006 14:00,3.4,2.9,10.6,3.1
1/27/2006 15:00,7.6,1.6,4.8,6.8
1/27/2006 16:00,7.9,6,8.1,5.3
1/27/2006 17:00,6.7,8.2,9,4.2
1/27/2006 18:00,8.4,3.1,4.3,5.1
1/27/2006 19:00,10.1,2.1,14.2,6.5
1/27/2006 20:00,13.6,5.5,13.8,5.7
1/27/2006 21:00,18.3,7.9,18.8,8.9
1/27/2006 22:00,24.6,10.7,20.6,11.7
1/27/2006 23:00,28,10,27.6,13.1
1/28/2006 0:00,28.4,10.6,14.3,10.2
1/28/2006 1:00,24.4,3.6,17.8,9.1
1/28/2006 2:00,24.1,10.6,13.3,5.6
1/28/2006 3:00,14.6,12,8.7,7.7
1/28/2006 4:00,10.5,10.8,16,5.9
1/28/2006 5:00,8.6,6.8,16.3,4.8
1/28/2006 6:00,10,11.1,12,5.8
1/28/2006 7:00,11.7,10.8,13.2,6.5
1/28/2006 8:00,12.3,12.5,15.5,9.9
1/28/2006 9:00,13.7,6.3,29.8,9.5
1/28/2006 10:00,16.8,9.6,16.8,8.9
1/28/2006 11:00,9.8,10.3,9.2,9.8
1/28/2006 12:00,7.1,5.7,5.3,7.1
1/28/2006 13:00,6.6,3.6,5.3,4.6
1/28/2006 14:00,4.5,0.4,4.5,5.1
1/28/2006 15:00,1.9,3.5,2.6,3.4
1/28/2006 16:00,3.5,2.5,2.3,2.3
1/28/2006 17:00,2.7,-0.1,1.6,2.6
1/28/2006 18:00,2.4,-0.2,-0.9,2.8
1/28/2006 19:00,0.8,0.3,1.3,1.5
1/28/2006 20:00,1.6,-0.5,1.7,2.4
1/28/2006 21:00,1.7,3.3,1.1,4.4
1/28/2006 22:00,3.5,3.1,2.5,4.4
1/28/2006 23:00,5.1,9.1,3.2,6.5
1/29/2006 0:00,7.3,8.2,4.6,5
1/29/2006 1:00,6.3,2.8,2.3,3.9
1/29/2006 2:00,6.4,4.8,2,9.6
1/29/2006 3:00,9.6,7.2,1.6,11.7
1/29/2006 4:00,10.1,10.9,2.7,12.6
1/29/2006 5:00,8.1,10.7,3.5,12.3
1/29/2006 6:00,10.1,12.8,4.6,12.5
1/29/2006 7:00,10,9.9,4.3,11.1
1/29/2006 8:00,9.8,12.7,6,15
1/29/2006 9:00,7.4,15.8,5,20.4
1/29/2006 10:00,9.3,13.2,6,12.9
1/29/2006 11:00,7.4,8.3,8.1,7
1/29/2006 12:00,6.3,-0.1,8.5,8.1
1/29/2006 13:00,6.6,0.2,7.3,7.5
1/29/2006 14:00,2.9,3,1.2,6.6
1/29/2006 15:00,2.7,11.5,4.8,4.8
1/29/2006 16:00,4.3,12.2,4.1,4.9
1/29/2006 17:00,4.6,8.2,6,3.2
1/29/2006 18:00,6.1,6.2,7.9,3.8
1/29/2006 19:00,13.8,6.4,11.1,8.4
1/29/2006 20:00,21.9,13.3,14.9,12.7
1/29/2006 21:00,17.2,16.4,18.9,15.7
1/29/2006 22:00,13,14.2,23.4,16.6
1/29/2006 23:00,14.8,19.9,24,15.7
1/30/2006 0:00,18.7,18.9,17.6,14.5
1/30/2006 1:00,17.8,16.9,12.8,11.4
1/30/2006 2:00,15.4,19,15.5,8
1/30/2006 3:00,16.9,23.9,16,9.3
1/30/2006 4:00,15,25.3,15.3,7
1/30/2006 5:00,15.3,23.1,14.6,4.7
1/30/2006 6:00,14.7,19.8,16.2,6.9
1/30/2006 7:00,17.4,21.5,12.7,7.9
1/30/2006 8:00,18,24.3,16.3,10.3
1/30/2006 9:00,20.1,21.7,20.2,10.1
1/30/2006 10:00,18.4,22.7,28.3,14.8
1/30/2006 11:00,17.3,20.7,29.7,13.8
1/30/2006 12:00,16.7,18.2,31.3,12.9
1/30/2006 13:00,18.8,17.6,22.5,12.4
1/30/2006 14:00,16.5,14.5,24.9,11
1/30/2006 15:00,13.8,16.4,28.2,11.3
1/30/2006 16:00,10.6,13.9,32.8,13.9
1/30/2006 17:00,13.2,17.4,37.3,19.8